"Pseudo-MPEC" for P10Inlk

Created 2018 Jul 14 3:18:33 UT using Find_Orb

Click here for an explanation of pseudo-MPECs

 
 Astrometry: 
     P10Inlk  C2018 07 11N^AstrometryjajBA$nRBF=UdtI\4BS`NaOHmuc$G/ek+`Iy8lyVF51
     P10Inlk  C2018 07 11G=*JSrl-Xua?$c2yM+#N:B@E(ixu5wQ]n5aH-./f)p_-ZL`aWd5KF51
     P10Inlk  C2018 07 11`UJiyHd4yoKG*3o7u$W$Oqe/CKJTi_%Po)sn+]\*,b+6u!'JY9N.F51
     P10Inlk  C2018 07 110mq-uab[@lPIexTZ8redacted;.BCxqx%AXrI@(li5gPwJiRs.PMF51
     P10Inlk |C2018 07 120e?-cYausn$nP@:t/'J,*OO6H]gPmRoe92'rNWM!%+o/K/)[kTAO807
     P10Inlk |C2018 07 12)K?+.,[V8+A,qIXE+G_6pnZxQ%,L.iwMt,40Lo]2f,kffPgKA]@7807
     P10Inlk |C2018 07 12qrhv$n^ml2gRFQnLFQ_g8PSX@^!W$8)PseeYTOGAPhsvtAH@raad807
     P10Inlk KC2018 07 137:Cr4'sF_2O5l.CAjV2i,,0/']ph!b)DZq%-=dsFSfUva5@XlSGR807
     P10Inlk KC2018 07 13_2afoXUpt8oT/t;M95MlU(CpcNdvV.XvWjQ'dCPrSK3ZH-dWj-Nb807
     P10Inlk KC2018 07 13qgRvC`TtqDKS.I)ZV.njLpQ7NADV]oXc7e`4Kn.w94P!]Y\NEOCP807

Station data:
(807) Cerro Tololo Observatory, La Serena  (S30.169136 W70.805900)  Chile.
   1.5-m Ritchey-Chrétien.
(F51) Pan-STARRS 1, Haleakala  (N20.707235 W156.255910)  US/Hawaii.
   Observers N. Primak, A. Schultz, S. Watters, J. Thiel, T. Goggia. Measurer
   PS1 Science Consortium. 1.8-m Ritchey-Chrétien + CCD.

Orbital elements:  P10Inlk
   Perihelion 2018 Jun 27.766097 +/- 1.87 TT = 18:23:10 (JD 2458297.266097)
Epoch 2018 Jul 13.0 TT = JDT 2458312.5   Earth MOID: 0.3102   Ma: 0.0949
M   3.92486 +/- 0.9                 (J2000 ecliptic)          AutoNEOCP
n   0.25764009 +/- 0.033            Peri.  201.67899 +/- 1.9
a   2.44602233 +/- 0.209            Node    80.51205 +/- 0.28
e   0.4593937 +/- 0.0345            Incl.    7.58485 +/- 0.43
P   3.83                   H 21.9   G  0.15   U 10.4  
q 1.32233485 +/- 0.0263    Q 3.56970981 +/- 0.354
From 10 observations 2018 July 11-13 (41.3 hr); mean residual 0".06
Residuals in arcseconds: 
180711 F51  .03-  .04+    180712 807  .07-  .01-    180713 807  .08+  .08+    
180711 F51  .07+  .10-    180712 807  .02+  .02+    180713 807  .07-  .05-    
180711 F51  .08+  .03+    180712 807  .01+  .04-    
180711 F51  .11-  .04+    180713 807  .01+  .02-    

Ephemerides (geocentric):
Date (UTC) HH   RA              Dec         delta   r     elong  mag " sig PA
---- -- -- --  -------------   -----------  ------ ------ -----  --- ---- ---
2018 07 14 03  20 50 48.225   -35 39 16.67  .33462 1.3327 158.0 21.0  3.9 106
2018 07 14 04  20 50 51.092   -35 39 55.91  .33466 1.3327 158.0 21.0  4.0 106
2018 07 14 05  20 50 53.956   -35 40 35.11  .33470 1.3328 158.0 21.0  4.2 107
2018 07 14 06  20 50 56.815   -35 41 14.25  .33474 1.3328 158.0 21.0  4.4 107
2018 07 14 07  20 50 59.670   -35 41 53.34  .33478 1.3329 158.0 21.0  4.6 107
2018 07 14 08  20 51 02.521   -35 42 32.39  .33482 1.3329 158.0 21.0  4.7 108
2018 07 14 09  20 51 05.367   -35 43 11.38  .33486 1.3330 158.0 21.0  4.9 108
2018 07 14 10  20 51 08.210   -35 43 50.32  .33490 1.3330 158.0 21.0  5.1 109
2018 07 14 11  20 51 11.048   -35 44 29.22  .33494 1.3331 158.1 21.0  5.3 109
2018 07 14 12  20 51 13.882   -35 45 08.06  .33498 1.3331 158.1 21.0  5.5 109
2018 07 14 13  20 51 16.711   -35 45 46.85  .33502 1.3332 158.1 21.0  5.7 110
2018 07 14 14  20 51 19.537   -35 46 25.59  .33506 1.3332 158.1 21.0  5.9 110
2018 07 14 15  20 51 22.358   -35 47 04.28  .33510 1.3333 158.1 21.0  6.1 110
2018 07 14 16  20 51 25.175   -35 47 42.93  .33515 1.3334 158.1 21.0  6.3 111
2018 07 14 17  20 51 27.988   -35 48 21.51  .33519 1.3334 158.1 21.0  6.5 111
2018 07 14 18  20 51 30.797   -35 49 00.05  .33523 1.3335 158.1 21.0  6.8 111
2018 07 14 19  20 51 33.601   -35 49 38.54  .33527 1.3335 158.1 21.0  7.0 112
2018 07 14 20  20 51 36.401   -35 50 16.98  .33531 1.3336 158.1 21.0  7.2 112
2018 07 14 21  20 51 39.197   -35 50 55.36  .33536 1.3336 158.2 21.0  7.4 112
2018 07 14 22  20 51 41.989   -35 51 33.70  .33540 1.3337 158.2 21.0  7.7 112
2018 07 14 23  20 51 44.777   -35 52 11.98  .33544 1.3337 158.2 21.0  7.9 113
2018 07 15 00  20 51 47.560   -35 52 50.21  .33548 1.3338 158.2 21.0  8.2 113
2018 07 15 01  20 51 50.339   -35 53 28.39  .33553 1.3338 158.2 21.0  8.4 113
2018 07 15 02  20 51 53.115   -35 54 06.52  .33557 1.3339 158.2 21.0  8.7 114
2018 07 15 03  20 51 55.886   -35 54 44.60  .33562 1.3340 158.2 21.0  8.9 114
2018 07 15 04  20 51 58.652   -35 55 22.62  .33566 1.3340 158.2 21.0  9.2 114
2018 07 15 05  20 52 01.415   -35 56 00.59  .33570 1.3341 158.2 21.0  9.4 114
2018 07 15 06  20 52 04.173   -35 56 38.52  .33575 1.3341 158.2 21.0  9.7 114
2018 07 15 07  20 52 06.928   -35 57 16.38  .33579 1.3342 158.2 21.0 10.0 115
2018 07 15 08  20 52 09.678   -35 57 54.20  .33584 1.3342 158.3 21.0 10.2 115
2018 07 15 09  20 52 12.424   -35 58 31.97  .33588 1.3343 158.3 21.0 10.5 115
2018 07 15 10  20 52 15.166   -35 59 09.68  .33593 1.3343 158.3 21.0 10.8 115
2018 07 15 11  20 52 17.903   -35 59 47.34  .33597 1.3344 158.3 21.0 11.1 115
2018 07 15 12  20 52 20.637   -36 00 24.95  .33602 1.3345 158.3 21.0 11.4 116
2018 07 15 13  20 52 23.367   -36 01 02.50  .33606 1.3345 158.3 21.0 11.6 116
2018 07 15 14  20 52 26.092   -36 01 40.00  .33611 1.3346 158.3 21.0 11.9 116
2018 07 15 15  20 52 28.813   -36 02 17.45  .33616 1.3346 158.3 21.0 12.2 116
2018 07 15 16  20 52 31.530   -36 02 54.85  .33620 1.3347 158.3 21.0 12.5 116
2018 07 15 17  20 52 34.243   -36 03 32.19  .33625 1.3347 158.3 21.0 12.9 117
2018 07 15 18  20 52 36.952   -36 04 09.48  .33630 1.3348 158.3 21.0 13.2 117
2018 07 15 19  20 52 39.657   -36 04 46.72  .33634 1.3349 158.4 21.0 13.5 117
2018 07 15 20  20 52 42.357   -36 05 23.91  .33639 1.3349 158.4 21.0 13.8 117
2018 07 15 21  20 52 45.054   -36 06 01.04  .33644 1.3350 158.4 21.0 14.1 117
2018 07 15 22  20 52 47.746   -36 06 38.12  .33649 1.3350 158.4 21.0 14.4 117
2018 07 15 23  20 52 50.434   -36 07 15.14  .33653 1.3351 158.4 21.0 14.8 118
2018 07 16 00  20 52 53.119   -36 07 52.11  .33658 1.3351 158.4 21.0 15.1 118
2018 07 16 01  20 52 55.799   -36 08 29.03  .33663 1.3352 158.4 21.0 15.4 118
2018 07 16 02  20 52 58.475   -36 09 05.90  .33668 1.3353 158.4 21.0 15.8 118